User: anonymous   Login
Location: Unspecified
(0.0000°N, 0.0000°E)
Time: 00:05:54
(UTC+00:00)
Language:

CBERS-4 - Orbit

View from above orbital plane
View from above orbital plane
View from above satellite
View from above satellite

Ground track
Ground track

The orbit data is extracted from the following two-line orbital elements,

1 40336U 14079A   18112.55424421 -.00000001  00000-0  14550-4 0  9998
2 40336  98.4167 185.4945 0001115 102.3057 257.8256 14.35481325176796
Epoch (UTC): 22 April 2018 13:18:06
Eccentricity: 0.0001115
inclination: 98.4167°
perigee height: 772 km
apogee height: 774 km
right ascension of ascending node: 185.4945°
argument of perigee: 102.3057°
revolutions per day: 14.35481325
mean anomaly at epoch: 257.8256°
orbit number at epoch: 17679

The dashed part of the orbit path shows where the satellite is in the earth's shadow,  

DLR